TimeCST,TemperatureF,Dew PointF,Humidity,Sea Level PressureIn,VisibilityMPH,Wind Direction,Wind SpeedMPH,Gust SpeedMPH,PrecipitationIn,Events,Conditions,WindDirDegrees,DateUTC
12:15 AM,48.2,41.5,78,30.21,10.0,East,3.5,-,N/A,,Clear,90,2012-12-13 06:15:00
12:35 AM,48.2,41.9,79,30.21,10.0,East,3.5,-,N/A,,Clear,90,2012-12-13 06:35:00
12:55 AM,47.3,41.9,82,30.21,10.0,Calm,Calm,-,N/A,,Clear,0,2012-12-13 06:55:00
1:15 AM,47.3,42.3,83,30.20,10.0,East,3.5,-,N/A,,Clear,90,2012-12-13 07:15:00
1:35 AM,48.6,43.3,82,30.20,10.0,East,3.5,-,N/A,,Clear,80,2012-12-13 07:35:00
1:55 AM,48.7,43.3,82,30.19,10.0,East,3.5,-,N/A,,Clear,90,2012-12-13 07:55:00
2:15 AM,48.6,43.7,83,30.19,10.0,East,4.6,-,N/A,,Clear,80,2012-12-13 08:15:00
2:35 AM,48.6,43.3,82,30.19,10.0,Calm,Calm,-,N/A,,Clear,0,2012-12-13 08:35:00
2:55 AM,48.4,43.5,83,30.19,10.0,Calm,Calm,-,N/A,,Clear,0,2012-12-13 08:55:00
3:15 AM,48.2,43.2,83,30.19,10.0,Calm,Calm,-,N/A,,Clear,0,2012-12-13 09:15:00
3:35 AM,48.7,43.7,83,30.19,10.0,Calm,Calm,-,N/A,,Clear,0,2012-12-13 09:35:00
3:55 AM,47.5,43.0,84,30.19,10.0,Calm,Calm,-,N/A,,Clear,0,2012-12-13 09:55:00
4:15 AM,48.7,43.7,83,30.19,10.0,Calm,Calm,-,N/A,,Clear,0,2012-12-13 10:15:00
4:35 AM,49.1,43.7,82,30.19,10.0,ENE,3.5,-,N/A,,Scattered Clouds,70,2012-12-13 10:35:00
4:55 AM,50.4,44.6,81,30.19,10.0,ENE,3.5,-,N/A,,Mostly Cloudy,60,2012-12-13 10:55:00
5:15 AM,51.8,45.0,77,30.18,10.0,East,4.6,-,N/A,,Overcast,80,2012-12-13 11:15:00
5:35 AM,52.9,45.7,77,30.19,10.0,Calm,Calm,-,N/A,,Overcast,0,2012-12-13 11:35:00
5:55 AM,52.9,45.7,77,30.19,10.0,Calm,Calm,-,N/A,,Overcast,0,2012-12-13 11:55:00
6:15 AM,52.7,45.5,76,30.20,10.0,Calm,Calm,-,N/A,,Overcast,0,2012-12-13 12:15:00
6:35 AM,52.7,45.5,76,30.20,10.0,Calm,Calm,-,N/A,,Overcast,0,2012-12-13 12:35:00
6:55 AM,53.1,45.9,77,30.21,10.0,Calm,Calm,-,N/A,,Overcast,0,2012-12-13 12:55:00
7:15 AM,53.8,46.4,76,30.21,10.0,Calm,Calm,-,N/A,,Overcast,0,2012-12-13 13:15:00
7:35 AM,54.0,46.4,76,30.21,10.0,Calm,Calm,-,N/A,,Overcast,0,2012-12-13 13:35:00
7:55 AM,54.0,46.6,76,30.22,10.0,Calm,Calm,-,N/A,,Overcast,0,2012-12-13 13:55:00
8:15 AM,54.5,46.8,75,30.22,10.0,Calm,Calm,-,N/A,,Overcast,0,2012-12-13 14:15:00
8:35 AM,54.9,47.1,75,30.22,10.0,Calm,Calm,-,N/A,,Overcast,0,2012-12-13 14:35:00
8:55 AM,55.4,47.3,74,30.23,10.0,Calm,Calm,-,N/A,,Overcast,0,2012-12-13 14:55:00
9:15 AM,56.1,47.5,73,30.23,10.0,Calm,Calm,-,N/A,,Overcast,0,2012-12-13 15:15:00
9:35 AM,56.8,48.0,72,30.23,10.0,Calm,Calm,-,N/A,,Overcast,0,2012-12-13 15:35:00
9:55 AM,57.7,48.4,71,30.24,10.0,Calm,Calm,-,N/A,,Overcast,0,2012-12-13 15:55:00
10:15 AM,58.5,48.9,71,30.23,10.0,Calm,Calm,-,N/A,,Overcast,0,2012-12-13 16:15:00
10:35 AM,59.0,49.3,70,30.23,10.0,Calm,Calm,-,N/A,,Overcast,0,2012-12-13 16:35:00
10:55 AM,59.9,50.2,70,30.23,10.0,Calm,Calm,-,N/A,,Overcast,0,2012-12-13 16:55:00
11:15 AM,60.8,50.9,70,30.23,10.0,Calm,Calm,-,N/A,,Overcast,0,2012-12-13 17:15:00
11:35 AM,60.4,48.9,66,30.23,10.0,West,4.6,-,N/A,,Overcast,260,2012-12-13 17:35:00
12:15 PM,64.8,54.9,70,30.20,10.0,ESE,11.5,18.4,N/A,,Overcast,120,2012-12-13 18:15:00
12:35 PM,64.4,55.4,73,30.19,10.0,SE,11.5,17.3,N/A,,Overcast,130,2012-12-13 18:35:00
12:55 PM,64.2,55.8,74,30.17,10.0,SE,11.5,-,N/A,,Overcast,130,2012-12-13 18:55:00
1:15 PM,63.5,55.9,76,30.16,7.0,ESE,12.7,20.7,N/A,,Overcast,120,2012-12-13 19:15:00
1:35 PM,63.7,56.1,76,30.15,7.0,ESE,11.5,-,N/A,,Overcast,110,2012-12-13 19:35:00
1:55 PM,64.9,56.1,73,30.14,10.0,ESE,12.7,19.6,N/A,,Overcast,110,2012-12-13 19:55:00
2:15 PM,64.6,55.9,74,30.14,10.0,ESE,10.4,-,N/A,,Overcast,110,2012-12-13 20:15:00
2:35 PM,64.4,56.1,74,30.14,10.0,ESE,10.4,-,N/A,,Overcast,110,2012-12-13 20:35:00
2:55 PM,64.9,55.8,72,30.13,10.0,ESE,8.1,-,N/A,,Overcast,110,2012-12-13 20:55:00
3:15 PM,65.3,55.8,71,30.12,10.0,East,6.9,-,N/A,,Overcast,90,2012-12-13 21:15:00
3:35 PM,66.0,55.4,69,30.12,10.0,East,10.4,-,N/A,,Overcast,100,2012-12-13 21:35:00
3:55 PM,66.7,55.2,66,30.12,10.0,ESE,11.5,16.1,N/A,,Overcast,120,2012-12-13 21:55:00
4:35 PM,67.1,55.8,67,30.11,10.0,ESE,13.8,19.6,N/A,,Overcast,120,2012-12-13 22:35:00
4:55 PM,66.7,55.9,68,30.11,10.0,SE,11.5,18.4,N/A,,Overcast,130,2012-12-13 22:55:00
5:35 PM,66.6,55.8,68,30.11,10.0,ESE,11.5,19.6,N/A,,Overcast,120,2012-12-13 23:35:00
6:15 PM,65.8,56.3,71,30.12,10.0,ESE,10.4,-,N/A,,Overcast,120,2012-12-14 00:15:00
6:55 PM,65.3,56.7,74,30.12,10.0,ESE,10.4,-,N/A,,Overcast,120,2012-12-14 00:55:00
7:15 PM,65.3,56.7,74,30.12,10.0,ESE,9.2,-,N/A,,Overcast,120,2012-12-14 01:15:00
7:55 PM,65.3,57.2,75,30.13,10.0,ESE,10.4,-,N/A,,Overcast,110,2012-12-14 01:55:00
8:15 PM,65.3,57.2,75,30.13,10.0,ESE,10.4,17.3,N/A,,Overcast,120,2012-12-14 02:15:00
8:35 PM,65.3,57.4,76,30.13,10.0,ESE,10.4,-,N/A,,Overcast,110,2012-12-14 02:35:00
8:55 PM,65.3,57.4,76,30.12,10.0,ESE,10.4,16.1,N/A,,Overcast,110,2012-12-14 02:55:00
9:15 PM,65.3,57.6,76,30.12,10.0,ESE,12.7,-,N/A,,Overcast,110,2012-12-14 03:15:00
9:35 PM,64.9,58.3,79,30.13,10.0,ESE,9.2,16.1,N/A,,Overcast,120,2012-12-14 03:35:00
10:15 PM,64.8,59.0,82,30.13,10.0,ESE,11.5,-,N/A,,Overcast,120,2012-12-14 04:15:00
10:35 PM,64.6,59.2,83,30.13,10.0,SE,10.4,-,N/A,,Overcast,130,2012-12-14 04:35:00
10:55 PM,64.2,59.5,85,30.12,10.0,ESE,10.4,-,N/A,,Overcast,120,2012-12-14 04:55:00
11:55 PM,64.2,60.1,86,30.10,10.0,SE,8.1,-,N/A,,Overcast,130,2012-12-14 05:55:00